Lawrence, MA

1:12 AM EDT on October 20, 2017 (GMT -0400)
Lawrence Municipal

Weather History for KLWM - July, 2013

Change the Weather History Date:

Friday, July 19, 2013

  Actual Average Record
Temperature  
Mean Temperature 84 °F -  
Max Temperature 97 °F 85 °F 97 °F (2013)
Min Temperature 73 °F 64 °F 53 °F (1944)
Cooling Degree Days 20    
Growing Degree Days 34 (Base 50)    
Moisture  
Dew Point 70 °F    
Average Humidity 61    
Maximum Humidity 82    
Minimum Humidity 40    
Precipitation  
Precipitation 0.00 in - - ()
Sea Level Pressure  
Sea Level Pressure 29.82 in    
Wind  
Wind Speed 7 mph (SW)    
Max Wind Speed 20 mph    
Max Gust Speed 30 mph    
Visibility 10 miles    
Events      
Averages and records for this station are not official NWS values.
T = Trace of Precipitation, MM = Missing Value Source: NWS Daily Summary

Daily Weather History Graph

Daily Weather History Graph

Search for Another Location

Airport or City:

Trip Planner

Search our weather history database for the weather conditions in past years. The results will help you decide how hot, cold, wet, or windy it might be!

Date:

Astronomy

Jul. 19, 2013 Rise Set
Actual Time 5:23 AM EDT 8:17 PM EDT
Civil Twilight 4:50 AM EDT 8:50 PM EDT
Nautical Twilight 4:07 AM EDT 9:33 PM EDT
Astronomical Twilight 3:18 AM EDT 10:22 PM EDT
Moon 5:16 PM EDT (7/19) 2:02 AM EDT (7/19)
Length of Visible Light 16h 00m
Length of Day
14h 53m
Waxing Gibbous, 86% of the Moon is Illuminated
Jul 19
Waxing Gibbous
Jul 22
Full
Jul 29
Last Quarter
Aug 6
New
Aug 14
First Quarter

Hourly Weather History & Observations

Time (EDT) Temp. Heat Index Dew Point Humidity Pressure Visibility Wind Dir Wind Speed Gust Speed Precip Events Conditions
12:54 AM 75.9 °F - 68.0 °F 76% 29.94 in 10.0 mi Calm Calm - N/A   Clear
1:54 AM 75.0 °F - 68.0 °F 79% 29.94 in 10.0 mi South 3.5 mph - N/A   Clear
2:54 AM 75.0 °F - 68.0 °F 79% 29.94 in 10.0 mi South 3.5 mph - N/A   Partly Cloudy
3:54 AM 73.9 °F - 68.0 °F 82% 29.92 in 10.0 mi Calm Calm - N/A   Clear
4:54 AM 73.9 °F - 68.0 °F 82% 29.91 in 10.0 mi Calm Calm - N/A   Clear
5:54 AM 75.0 °F - 69.1 °F 82% 29.91 in 10.0 mi SSW 4.6 mph - N/A   Scattered Clouds
6:54 AM 77.0 °F - 70.0 °F 79% 29.90 in 10.0 mi Calm Calm - N/A   Clear
7:54 AM 82.0 °F 86.7 °F 72.0 °F 71% 29.89 in 10.0 mi Calm Calm - N/A   Clear
8:54 AM 87.1 °F 93.6 °F 72.0 °F 61% 29.88 in 10.0 mi SW 11.5 mph - N/A   Clear
9:54 AM 90.0 °F 96.9 °F 72.0 °F 55% 29.88 in 10.0 mi WSW 9.2 mph - N/A   Clear
10:54 AM 91.9 °F 96.9 °F 69.1 °F 47% 29.86 in 10.0 mi WSW 17.3 mph 24.2 mph N/A   Clear
11:54 AM 93.9 °F 100.3 °F 70.0 °F 46% 29.84 in 10.0 mi West 13.8 mph - N/A   Clear
12:54 PM 95.0 °F 99.5 °F 68.0 °F 41% 29.81 in 10.0 mi WSW 15.0 mph 24.2 mph N/A   Clear
1:54 PM 96.1 °F 101.0 °F 68.0 °F 40% 29.79 in 10.0 mi West 16.1 mph 26.5 mph N/A   Clear
2:54 PM 96.1 °F 101.0 °F 68.0 °F 40% 29.77 in 10.0 mi SW 16.1 mph 24.2 mph N/A   Clear
3:54 PM 96.1 °F 101.6 °F 69.1 °F 41% 29.74 in 10.0 mi WSW 19.6 mph 27.6 mph N/A   Partly Cloudy
4:54 PM 96.1 °F 102.9 °F 70.0 °F 43% 29.72 in 10.0 mi SW 18.4 mph 25.3 mph N/A   Partly Cloudy
5:54 PM 93.9 °F 100.3 °F 70.0 °F 46% 29.71 in 10.0 mi SW 16.1 mph 29.9 mph N/A   Clear
6:54 PM 91.9 °F 98.4 °F 71.1 °F 50% 29.72 in 10.0 mi SW 12.7 mph 23.0 mph N/A   Clear
7:54 PM 91.0 °F 99.3 °F 73.0 °F 55% 29.73 in 9.0 mi SW 12.7 mph 21.9 mph N/A   Clear
8:54 PM 88.0 °F 96.5 °F 73.9 °F 63% 29.73 in 9.0 mi SSW 11.5 mph - N/A   Clear
9:54 PM 87.1 °F 96.3 °F 75.0 °F 67% 29.74 in 8.0 mi SSW 11.5 mph 17.3 mph N/A   Clear
10:54 PM 86.0 °F 96.0 °F 75.9 °F 72% 29.75 in 7.0 mi SW 9.2 mph 19.6 mph N/A   Clear
11:54 PM 84.9 °F 93.3 °F 75.0 °F 72% 29.74 in 8.0 mi SW 9.2 mph - N/A   Clear